Location: Aufkirchen
(47.9603°N, 11.3653°E)
Time: 14:34:11
(UTC+01:00)

Transit 2A Rocket - Pass Details

Date: 09 December 2020
Orbit: 592 x 910 km, 66.7° (Epoch: 21 January)

Event Time Altitude Azimuth Distance (km) Brightness Sun altitude
Exits shadow 07:45:24 - 326° (NW) 3,167 7.6 -1.8°
Rises 07:45:28 0° 326° (NNW) 3,140 7.6 -1.8°
Reaches altitude 10° 07:47:57 10° 330° (NNW) 2,164 6.8 -1.5°
Maximum altitude 07:52:46 59° 50° (NE) 756 5.2 -0.8°
Drops below altitude 10° 07:57:11 10° 131° (SE) 1,988 9.4 -0.2°
Sets 07:59:24 0° 135° (SE) 2,862 10.4 0.1°
